www.pogodaiklimat.ru

Погода и климат >> Архив погоды >> Россия >> Якутия >> Теплый Ключ


ПОГОДА в Теплом Ключе

  • Прогноз погоды в Теплом Ключе
  • Монитор погоды в Теплом Ключе

АРХИВ ПОГОДЫ в Теплом Ключе

Время (UTC), дата Ветер
(напр.,м/с)
 
Видим.   Явления Облачность Т
(С)
Тd
(С)
f
(%)
Тe
(С)
Тes
(С)
Комфортность P
(гПа)
Po
(гПа)
Тmin
(С)
Tmax
(С)
R
(мм)
R24
(мм)
S
(см)
06 19.06 СВ 3 50 км 5/5 1000 м
[Cu med, cong]
+24.2 +4.6 28 +24 +28 комфорт 1006.4 973.7
09 19.06 В 2 50 км 6/3 1000 м
[Cb calv Ac trans]
+25.1 +4.0 26 +24 +26 комфорт 1006.4 973.8 +26.9
12 19.06 штиль 0 50 км 6/0 2000 м
[Ac trans]
+20.1 +8.0 46 +21 +21 комфорт 1007.7 974.7
15 19.06 штиль 0 50 км 8/0 2000 м
[Ac trans]
+13.9 +9.6 75 +14 +14 1009.0 975.1
18 19.06 штиль 0 50 км 3/0 2000 м
[Ac trans]
+10.3 +8.3 87 +10 +10 1009.4 975.1
21 19.06 штиль 0 50 км 4/0 2000 м
[Ac trans]
+15.2 +10.5 74 +15 +18 1008.8 975.1 +9.2
00 20.06 Ю 1 50 км 4/0 2000 м
[Ac trans]
+21.2 +10.0 49 +23 +31 комфорт 1008.0 975.0
03 20.06 Ю 2 50 км слаб. ливневой дождь, в посл. час гроза 8/8 800 м
[Cb calv]
+23.9 +8.7 38 +25 +27 комфорт 1006.6 973.9
06 20.06 Ю 2
{13}
50 км {гроза} 8/4 600 м
[Cb calv Ac lent]
+18.0 +9.0 56 +19 +21 1006.8 973.6
09 20.06 ЮЗ 2 50 км 8/4 600 м
[Cb calv Ac lent]
+20.7 +9.0 47 +23 +23 комфорт 1006.8 973.8 +25.2 0.0
12 20.06 ЮЗ 1 50 км 6/0 2000 м
[Ac trans]
+14.6 +10.6 77 +15 +15 1007.9 974.2
15 20.06 штиль 0 50 км 8/0 2000 м
[Ac trans]
+11.2 +9.8 91 +11 +11 1008.5 974.4
18 20.06 штиль 0 50 км 3/0 2000 м
[Ac trans]
+6.9 +6.2 95 +6 +6 1009.3 974.6
21 20.06 В 2 50 км 3/0 2000 м
[Ac trans]
+15.4 +10.3 72 +15 +18 1008.5 974.9 +6.9
00 21.06 ЮЗ 1 50 км 4/3 1000 м
[Cu med, cong Ac trans]
+21.6 +10.9 51 +23 +31 комфорт 1007.7 974.8
03 21.06 штиль 0 50 км 6/6 1020 м
[Cb calv]
+21.6 +9.8 47 +23 +30 комфорт 1007.1 974.2
06 21.06 ЮВ 4 50 км {гроза} 6/4 1000 м
[Sc diur, vesp Ac trans]
+21.9 +10.9 50 +24 +27 комфорт 1008.3 975.4
09 21.06 В 3 50 км {ливн. осадки} 5/3 1000 м
[Cb calv Ac trans]
+22.0 +10.6 48 +24 +25 комфорт 1007.3 974.5 +24.1 1
12 21.06 В 2 50 км 4/0 2000 м
[Ac As Ci fib]
+20.5 +11.3 56 +23 +23 комфорт 1008.6 975.5
15 21.06 В 1 50 км 8/0
[Ac trans]
+13.3 +11.2 87 +13 +13 1010.4 976.5
18 21.06 В 1 50 км 3/0 2000 м
[Ac trans]
+10.9 +9.9 94 +10 +11 1011.8 977.5
21 21.06 В 1 50 км 9/0 2000 м
[Ac trans]
+14.2 +10.8 80 +15 +16 1012.1 978.2 +10.6
00 22.06 штиль 0 50 км 8/1 1000 м
[Cu med, cong Ac trans]
+20.4 +10.3 52 +22 +28 комфорт 1011.4 978.2
03 22.06 З 1 50 км 4/3 1000 м
[Cu med, cong Ci fib]
+24.7 +9.6 38 +25 +36 комфорт 1009.1 976.4
06 22.06 Ю 5
{10}
50 км гроза, ливневой дождь 9/5 1000 м
[Cb calv Ac trans]
+21.9 +10.2 47 +24 +25 комфорт 1009.4 976.4
09 22.06 штиль 0 20 км слаб. ливневой дождь {гроза} 10/10 960 м
[Cb calv]
+14.9 +13.8 93 +15 +15 1011.2 977.5 +25.6 2
12 22.06 В 1 50 км {ливн. осадки} 8/0
[Ac trans]
+15.2 +14.3 94 +16 +16 1011.9 978.1
15 22.06 ЮВ 2 50 км 8/0 2000 м
[Ac trans]
+12.3 +11.5 95 +11 +11 1012.1 978.0
18 22.06 штиль 0 50 км слаб. ливневой дождь 10/4 1000 м
[Cb calv As trans]
+12.2 +11.4 95 +12 +12 1012.7 978.6
21 22.06 штиль 0 50 км слаб. ливневой дождь 10/4 1000 м
[Cb calv As trans]
+12.6 +11.7 94 +12 +13 1013.3 979.2 +11.8 0.5
00 23.06 СВ 1 50 км {ливн. осадки} 10/4 1000 м
[Cb calv As trans]
+13.6 +11.5 87 +14 +16 1012.7 978.7
03 23.06 З 1 50 км 6/4 1000 м
[Cu hum Ac trans]
+20.6 +11.8 57 +24 +31 комфорт 1009.5 976.4
06 23.06 З 2 50 км 6/6 1000 м
[Cb calv]
+23.2 +11.7 48 +26 +29 жарко 1007.3 974.6
09 23.06 В 4 50 км 8/8 960 м
[Cb calv]
+21.5 +12.1 55 +24 +24 комфорт 1007.1 974.2 +23.9 0.0
12 23.06 В 2 50 км 4/0 2000 м
[Ac trans]
+18.6 +12.5 68 +20 +20 1007.7 974.5
15 23.06 ЮВ 1 50 км 8/4 1500 м
[Cb calv Ac trans]
+14.9 +12.0 83 +15 +15 1008.1 974.5
18 23.06 В 2 50 км 9/6 1410 м
[Cb calv Ac trans]
+15.1 +10.1 72 +15 +15 1008.9 975.2
21 23.06 В 2 20 км слаб. ливневой дождь 10/10 540 м
[Cb calv]
+13.8 +12.9 94 +13 +13 1010.4 976.6 +13.8 11
00 24.06 СВ 2 50 км слаб. ливневой дождь 10/8 930 м
[Cb calv As trans]
+16.3 +14.7 90 +16 +17 1010.3 976.7
03 24.06 С 1 50 км {ливн. осадки} 6/3 1000 м
[Cu med, cong Ac trans]
+22.7 +9.4 43 +24 +32 комфорт 1008.0 975.1
06 24.06 В 1 50 км {ливн. осадки} 6/4 1000 м
[Cu med, cong Ac trans]
+24.3 +8.2 36 +25 +30 комфорт 1006.7 974.1
09 24.06 С 1 50 км 6/4 1000 м
[Cb calv Ac trans]
+24.1 +8.4 37 +25 +26 комфорт 1006.9 974.3 +24.5 2
12 24.06 ЮВ 2
{13}
50 км слаб. ливневой дождь {гроза} 10/4 600 м
[Cb calv As trans]
+15.6 +12.5 82 +15 +15 1009.7 976.0
15 24.06 В 3 50 км {ливн. осадки} 10/4 600 м
[Cb calv As trans]
+14.5 +11.1 80 +14 +14 1011.1 977.3
18 24.06 В 2 50 км слаб. ливневой дождь 10/4 600 м
[Cb calv As trans]
+12.9 +12.0 94 +12 +12 1012.7 978.7
21 24.06 ЮВ 1 50 км слаб. ливневой дождь 10/4 600 м
[Cb calv As trans]
+12.7 +12.0 96 +13 +13 1013.6 979.5 +12.7 8
00 25.06 З 1 20 км в посл. час ливневой дождь 10/4 1000 м
[Cb calv As trans]
+14.8 +10.8 77 +15 +18 1013.8 979.9
03 25.06 СВ 2 20 км 9/5 700 м
[Cb calv Ac trans]
+16.4 +11.6 73 +17 +20 1012.7 979.0
06 25.06 С 2 50 км 5/3 1000 м
[Cb calv Ac trans]
+20.6 +11.0 54 +23 +28 комфорт 1010.8 977.7
09 25.06 ЮВ 2 50 км слаб. ливневой дождь 8/8 500 м
[Cb calv]
+17.5 +11.3 67 +18 +18 1012.0 978.4 +24.2 4
12 25.06 штиль 0 50 км {ливн. осадки} 6/0
[Ac trans]
+13.7 +12.6 93 +13 +13 1013.2 979.3
15 25.06 штиль 0 50 км 8/3 1000 м
[Cb calv Ac cast]
+12.5 +11.0 91 +12 +12 1014.6 980.5
18 25.06 штиль 0 50 км 10/0
[As op]
+10.9 +10.1 95 +10 +10 1016.0 981.5
21 25.06 штиль 0 50 км {ливн. осадки} 10/0 2000 м
[As op]
+12.3 +10.8 91 +12 +12 1016.1 981.9 +10.1 2
00 26.06 ЮЗ 1 50 км 4/3 1000 м
[Cb calv Ac trans]
+16.5 +9.0 61 +17 +25 1014.9 981.1

 

Местоположение метеостанции Теплый Ключ (Якутия, Россия): широта 62.78 долгота 136.80 высота над уровнем моря 289 м.

В архиве по умолчанию представлена погода в Теплом Ключе за последнюю неделю. Архивные данные за месяц целиком и за предыдущие месяцы, начиная с января 2011 года, Вы можете получить, выбрав интересующий диапазон дат из раскрывающегося списка и нажав кнопку "Ввод!".


*Определитесь, кто Вы:
робот инопланетянин человек

Внимание! Время в таблицах - всемирное. Для получения местного времени необходимо прибавить поправку, которая равна 9 ч.

Смотрите также архив погоды в соседних городах и на ближайших метеорологических станциях:

Погода в Охотском Перевозе (Якутия, Россия) (121 км)
Погода в Крест-Хальджае (Якутия, Россия) (122 км)
Погода в Томпо (Якутия, Россия) (139 км)
Погода в Восточной (Якутия, Россия) (150 км)
Погода в Ытык-Кюёле (Якутия, Россия) (175 км)
Погода в Чурапче (Якутия, Россия) (232 км)
Погода в Верхоянском Перевозе (Якутия, Россия) (249 км)
Погода в Агаякане (Якутия, Россия) (254 км)
Погода в Иэме (Якутия, Россия) (284 км)
Погода в Юртах (Якутия, Россия) (286 км)

Пояснения к столбцам:

Ветер - указаны скорость ветра в м/с - средняя за 10 мин, порывы в срок и между сроками (в фигурных скобках) и направление, откуда дует ветер: С - северный, СВ - северо-восточный, В - восточный, ЮВ - юго-восточный, Ю - южный, ЮЗ - юго-западный, З - западный, СЗ - северо-западный.
Видимость - горизонтальная дальность видимости в метрах или километрах. При видимости от 1 до 10 км при отсутствии осадков обычно наблюдается дымка, при ухудшении видимости до 1 км и менее - туман. В сухую погоду видимость может ухудшаться дымом, пылью или мглою.
Явления - указаны атмосферные явления, наблюдавшиеся в срок или в последний час перед сроком; фигурными скобками обозначены явления, наблюдавшиеся между сроками (за 1-3 часа до срока); квадратными скобками обозначены град или гололедные отложения с указанием их диаметра в мм.
Облачность - указаны через наклонную черту общая и нижняя облачность в баллах и высота нижней границы облаков в метрах; квадратными скобками обозначены формы облаков: Ci - перистые, Cs - перисто-слоистые, Cc - перисто-кучевые, Ac - высококучевые, As - высокослоистые, Sc - слоисто-кучевые, Ns - слоисто-дождевые, Cu - кучевые, Cb - кучево-дождевые. Подробнее классификацию облаков см. в Атласе облаков (PDF).
T - Температура воздуха - температура, измеренная на высоте 2 м над землей.
Td - Температура точки росы - температура, при понижении до которой содержащийся в воздухе водяной пар достигнет насыщения.
f - Относительная влажность воздуха - влажноcть воздуха, измеренная на высоте 2 м над землей.
Te - Эффективная температура - температура, которую ощущает одетый по сезону человек в тени. Характеристика душности погоды. При расчете учитывается влияние влажности воздуха и скорости ветра на теплоощущения человека.
Tes - Эффективная температура на солнце - температура, которую ощущает человек, с поправкой на солнечный нагрев. Характеристика знойности погоды. Зависит от высоты солнца над горизонтом, облачности и скорости ветра. Ночью, в пасмурную погоду, а также при ветре 12 м/с и более поправка равна нулю.
P - Атмосферное давление - приведенное к уровню моря атмосферное давление.
Po - Атмосферное давление - измеренное на уровне метеостанции атмосферное давление.
Tmin - Минимальная температура - минимум температуры воздуха на высоте 2 м над землей.
Tmax - Максимальная температура - максимум температуры воздуха на высоте 2 м над землей.
R - Количество осадков - Количество выпавших осадков за период времени, мм. При наведении курсора мыши на число - период времени, за который выпало указанное количество осадков.
R24 - Количество осадков - Количество выпавших осадков за 24 часа, мм.
S - Снежный покров - Высота снежного покрова, см. При наведении курсора мыши на число - состояние снежного покрова и степень покрытия местности в баллах.